Probability
0 0 0 0 0 0 0 0 0 0 0 0 2 4 8 14 22 28 31 31 29 27 25 20 15 11 7 7 9 10 9 8 7 6 4 3 1 0 0 0 0 0 0 0
0 0 0 0 0 0 0 0 0 0 0 0 2 4 7 11 18 25 29 31 31 30 28 22 15 12 9 7 8 9 8 6 6 6 4 3 2 0 0 0 0 0 0 0
0 0 0 0 0 0 0 0 0 0 0 0 1 3 4 7 11 17 22 27 30 32 31 24 16 13 11 9 9 9 7 5 5 5 4 3 1 0 0 0 0 0 0 0
0 0 0 0 0 0 0 0 0 0 0 0 0 1 2 3 5 9 14 21 27 31 29 24 17 15 13 11 9 8 6 4 4 3 3 2 1 0 0 0 0 0 0 0
0 0 0 0 0 0 0 0 0 0 0 0 0 0 1 1 2 4 8 14 22 26 26 22 19 17 13 10 9 7 5 3 2 1 1 1 0 0 0 0 0 0 0 0
0 0 0 0 0 0 0 0 0 0 0 0 0 0 0 0 1 2 4 8 15 20 22 21 20 18 14 10 9 7 5 3 1 0 0 0 0 0 0 0 0 0 0 0
0 0 0 0 0 0 0 0 0 0 0 0 0 0 0 0 1 2 3 5 9 14 18 19 18 16 15 12 11 9 7 4 2 0 0 0 0 0 0 0 0 0 0 0
0 0 0 0 0 0 0 0 0 0 0 0 0 1 1 1 2 3 5 7 8 9 13 15 16 16 16 15 14 11 8 5 3 1 0 0 0 0 0 0 0 0 0 0
0 0 0 0 0 0 0 0 0 0 0 0 0 1 2 1 3 5 6 7 7 7 9 11 13 14 16 17 15 11 8 5 3 2 0 0 0 0 0 0 0 0 0 0
0 0 0 0 0 0 0 0 0 0 0 0 0 1 1 1 2 4 5 4 5 6 7 9 11 12 15 16 13 8 6 4 2 1 0 1 1 1 0 0 0 0 0 0
0 0 0 0 0 0 0 0 0 0 0 0 0 0 0 0 1 2 2 2 4 6 7 9 10 12 13 14 11 7 4 2 1 0 1 2 2 1 0 0 0 0 0 0
0 0 0 0 0 0 0 0 0 0 0 0 0 0 0 0 1 2 1 2 3 5 7 9 10 10 11 11 8 5 3 1 0 0 1 2 2 1 0 0 0 0 0 0
0 0 0 0 0 0 0 0 0 0 0 0 0 0 0 0 1 1 1 1 3 5 7 8 8 7 7 7 5 2 1 0 0 0 0 1 1 0 0 0 0 0 0 0
0 0 0 0 0 0 0 0 0 0 0 0 0 0 0 0 0 0 0 1 3 5 6 6 5 4 4 4 2 1 0 0 0 0 0 0 0 0 0 0 0 0 0 0
0 0 0 0 0 0 0 0 0 0 0 0 0 0 0 0 0 0 0 0 1 3 4 4 4 3 2 1 1 0 0 0 0 0 0 0 0 0 0 0 0 0 0 0
0 0 0 0 0 0 0 0 0 0 0 0 0 0 0 0 0 0 0 0 0 1 1 2 3 2 0 0 0 0 0 0 0 0 0 0 0 0 0 0 0 0 0 0
0 0 0 0 0 0 0 0 0 0 0 0 0 0 0 0 0 0 0 0 0 0 0 1 1 0 0 0 0 0 0 0 0 0 0 0 0 0 0 0 0 0 0 0
0 0 0 0 0 0 0 0 0 0 0 0 0 0 0 0 0 0 0 0 0 0 0 0 0 0 0 0 0 0 0 0 0 0 0 0 0 0 0 0 0 0 0 0
0 0 0 0 0 0 0 0 0 0 0 0 0 0 0 0 0 0 0 0 0 0 0 0 0 0 0 0 0 0 0 0 0 0 0 0 0 0 0 0 0 0 0 0
0 0 0 0 0 0 0 0 0 0 0 0 0 0 0 0 0 0 0 0 0 0 0 0 0 0 0 0 0 0 0 0 0 0 0 0 0 0 0 0 0 0 0 0
0 0 0 0 0 0 0 0 0 0 0 0 0 0 0 0 0 0 0 0 0 0 0 0 0 0 0 0 0 0 0 0 0 0 0 0 0 0 0 0 0 0 0 0
0 0 0 0 0 0 0 0 0 0 0 0 0 0 0 0 0 0 0 0 0 0 0 0 0 0 0 0 0 0 0 0 0 0 0 0 0 0 0 0 0 0 0 0
0 0 0 0 0 0 0 0 0 0 0 0 0 0 0 0 0 0 0 0 0 0 0 0 0 0 0 0 0 0 0 0 0 0 0 0 0 0 0 0 0 0 0 0
0 0 0 0 0 0 0 0 0 0 0 0 0 0 0 0 0 0 0 0 0 0 0 0 0 0 0 0 0 0 0 0 0 0 0 0 0 0 0 0 0 0 0 0
0 0 0 0 0 0 0 0 0 0 0 0 0 0 0 0 0 0 0 0 0 0 0 0 0 0 0 0 0 0 0 0 0 0 0 0 0 0 0 0 0 0 0 0
0 0 0 0 0 0 0 0 0 0 0 0 0 0 0 0 0 0 0 0 0 0 0 0 0 0 0 0 0 0 0 0 0 0 0 0 0 0 0 0 0 0 0 0
Wind_Speed
3 4 1 4 5 4 2 2 4 5 2 1 2 3 4 5 5 6 7 7 7 5 3 3 4 4 4 3 3 3 3 3 3 2 3 2 1 1 1 1 2 2 2 2
5 3 5 3 3 3 2 2 4 4 1 2 1 2 3 4 7 7 9 8 8 6 5 4 4 3 3 4 4 3 3 2 3 2 2 2 2 2 1 1 2 3 2 2
3 6 2 2 2 2 3 4 4 3 2 2 1 2 2 2 2 3 5 5 7 8 7 6 5 4 4 4 4 4 3 3 3 3 3 3 3 2 2 2 2 3 3 2
4 5 2 2 3 4 4 5 5 3 1 2 1 2 5 3 3 4 5 6 7 7 6 6 6 5 4 4 4 4 4 4 4 4 3 3 2 2 1 1 1 2 3 2
4 2 1 2 4 4 5 0 2 1 3 1 2 1 6 1 3 6 6 7 7 6 6 6 7 6 5 4 4 4 4 4 4 4 4 4 3 2 1 1 2 2 3 3
5 3 2 3 1 1 2 4 5 5 4 0 3 3 6 3 5 5 5 7 7 6 6 6 6 7 6 4 4 4 5 4 3 3 4 4 4 3 2 2 2 2 2 2
6 5 3 1 1 3 4 5 4 5 3 5 2 3 8 5 4 5 6 6 6 6 6 6 7 7 7 6 5 5 5 4 3 3 3 2 3 3 2 1 0 1 1 2
2 6 4 2 2 2 1 6 6 4 5 5 2 5 6 3 2 2 2 4 4 4 6 6 7 7 7 7 6 5 5 4 3 3 2 2 2 2 1 1 1 1 1 1
3 5 4 2 1 4 3 2 4 5 1 2 4 5 6 2 2 1 1 3 5 5 6 6 6 6 6 6 5 5 5 3 3 3 3 2 2 2 1 0 0 0 1 1
5 3 4 3 3 4 3 5 4 4 3 3 4 4 5 4 4 2 1 3 3 4 5 5 6 6 5 5 5 5 5 4 2 2 2 2 2 1 1 1 1 1 2 2
3 3 4 3 1 1 2 3 4 3 3 4 3 6 4 4 4 3 3 2 3 4 5 5 5 5 5 5 5 5 4 4 3 3 2 3 2 2 2 2 2 2 2 2
2 4 2 4 3 1 2 4 5 3 3 3 3 7 3 2 2 2 2 1 2 3 4 5 5 5 5 4 4 4 4 3 3 3 3 2 2 2 2 2 2 2 2 2
4 4 2 6 5 2 0 2 3 4 4 3 3 7 2 2 1 1 2 2 3 4 4 5 5 5 5 4 4 4 4 3 3 3 3 2 2 2 2 2 2 2 2 3
6 4 5 6 6 3 2 2 3 4 3 4 7 7 4 2 1 1 1 2 3 4 5 5 4 4 4 4 4 4 4 3 4 3 3 2 2 1 1 2 2 2 2 2
4 3 3 5 5 2 3 4 4 5 6 6 6 5 6 5 4 3 3 4 4 4 4 5 5 4 4 4 4 4 4 3 3 3 3 2 2 2 2 2 2 2 3 3
3 3 1 3 2 1 2 3 3 3 3 4 3 5 3 0 2 2 3 4 4 4 4 5 5 5 5 5 5 4 3 3 3 3 3 2 2 2 2 2 2 3 3 3
3 4 2 3 3 2 4 4 3 3 3 4 5 5 1 0 2 3 4 5 5 4 4 6 6 6 5 5 5 4 3 3 3 3 2 2 2 2 1 1 2 3 3 3
6 4 3 1 2 4 6 2 3 2 2 3 2 1 2 2 1 0 2 4 5 5 4 5 6 6 4 3 4 4 4 4 3 3 2 2 2 2 1 2 2 2 1 2
5 6 4 2 2 6 5 2 3 3 3 2 3 2 2 2 3 2 1 2 4 4 4 4 5 5 5 5 4 5 4 4 3 2 2 2 2 2 1 2 1 1 1 2
4 4 5 3 2 5 6 2 2 3 4 2 4 4 3 3 1 2 1 2 4 4 4 4 4 5 5 4 5 5 4 4 3 2 2 1 2 2 1 1 1 1 1 1
2 2 3 4 4 7 5 1 3 2 6 2 4 4 5 4 3 2 3 3 4 4 4 5 5 5 4 4 5 5 4 3 2 2 2 2 2 1 1 1 1 1 2 2
6 4 4 4 3 8 2 4 5 6 2 2 4 4 4 3 3 4 4 4 5 5 5 5 5 4 4 4 5 5 3 2 2 2 2 2 2 1 2 2 2 1 2 2
6 7 6 8 8 5 2 4 2 3 3 3 4 4 6 5 4 4 4 5 4 4 4 4 5 5 3 3 4 4 2 2 3 3 2 2 2 2 2 2 2 1 1 1
3 3 3 3 5 3 2 1 1 2 3 3 4 6 6 5 5 5 5 4 4 4 4 4 5 4 3 3 3 3 3 3 3 3 2 2 2 2 1 1 1 0 0 0
5 5 3 3 3 1 1 2 3 3 4 5 5 4 6 7 5 5 4 5 4 3 3 4 4 4 3 3 2 2 3 4 3 2 2 1 1 1 1 1 1 1 2 2
5 7 7 7 7 6 5 5 5 6 5 6 6 4 4 5 6 5 5 4 4 4 4 4 4 3 3 3 2 2 3 4 4 2 1 1 1 1 1 1 2 2 2 3
Wind_Direction
42 64 232 227 195 196 187 219 271 268 256 148 212 239 239 191 178 184 183 180 178 184 169 150 144 136 138 136 133 149 142 134 127 115 117 120 108 81 57 48 43 37 40 39
29 307 245 221 186 180 194 251 274 293 348 136 166 273 256 198 198 195 194 189 180 177 180 171 147 129 131 137 139 143 131 124 127 126 124 121 119 107 90 42 31 20 22 24
210 248 238 175 197 198 230 209 227 240 350 41 100 324 290 264 210 201 202 194 187 188 187 176 162 142 126 133 145 144 136 120 109 111 105 93 77 63 50 33 21 4 7 12
252 266 258 249 245 185 258 235 205 204 127 300 94 267 279 255 252 225 209 203 201 195 185 173 163 148 139 142 131 122 120 113 108 110 112 116 116 118 107 53 18 353 3 5
271 269 264 255 249 187 225 242 138 157 147 69 10 194 282 299 250 239 219 211 206 195 181 169 162 151 141 140 130 124 112 95 89 94 108 112 104 100 76 54 38 13 3 5
258 268 225 237 276 157 159 65 54 49 74 270 243 189 270 236 233 247 227 215 201 190 174 161 152 140 138 135 128 122 108 87 79 89 99 113 113 102 84 55 28 2 353 353
330 320 300 217 19 9 66 76 24 358 6 251 239 198 248 247 237 237 232 214 199 181 172 163 157 153 152 144 139 126 118 108 102 101 97 104 113 113 115 105 22 339 341 340
321 305 311 342 181 194 159 138 158 206 231 273 300 234 252 270 281 270 213 184 184 177 170 164 162 157 155 151 147 138 133 133 129 115 102 92 96 104 116 142 198 268 287 293
193 263 299 344 358 134 136 160 165 140 186 272 274 279 298 298 322 18 121 160 181 178 166 157 152 152 155 154 149 142 134 128 123 117 109 96 88 93 101 88 89 302 304 305
171 245 294 311 42 33 118 141 98 119 162 251 280 268 256 263 261 259 198 182 178 160 152 150 153 157 158 150 134 135 135 135 123 113 110 102 82 73 74 66 37 7 344 348
146 184 303 360 29 252 68 84 103 118 156 171 260 269 236 228 234 233 227 206 180 169 163 156 153 151 141 134 132 132 124 121 115 110 105 97 85 72 63 51 26 10 355 1
123 123 274 280 277 197 167 167 147 153 220 183 209 266 297 250 235 199 195 171 166 156 148 148 145 138 134 138 132 126 124 125 124 119 109 104 93 76 62 42 16 9 1 3
131 106 26 339 340 353 37 165 149 133 125 165 199 264 336 15 23 145 161 155 150 141 141 137 135 139 139 132 125 129 130 129 123 116 112 104 82 66 48 31 13 11 12 9
116 123 171 212 237 239 264 229 167 140 162 211 228 253 278 271 253 230 179 166 158 149 149 143 143 143 139 132 132 138 135 137 134 124 116 107 89 69 47 34 29 20 16 14
111 163 224 245 253 225 233 253 205 193 202 204 239 244 261 237 217 210 183 161 154 157 160 156 151 146 139 134 133 133 139 138 136 128 117 111 98 74 59 47 36 27 21 20
104 158 205 299 282 256 269 272 233 222 221 228 253 268 271 215 139 171 179 169 171 179 172 158 151 150 151 147 146 141 142 137 128 125 127 117 99 79 59 42 43 41 29 19
137 139 139 262 294 335 281 250 218 219 222 196 223 245 199 245 207 199 196 189 186 186 171 159 155 156 156 154 151 147 146 135 126 126 124 116 108 90 67 50 52 46 26 24
142 132 143 218 353 253 249 243 192 205 245 213 214 226 191 201 214 215 183 183 178 168 162 158 154 150 146 144 139 136 132 126 124 124 122 112 116 104 70 57 48 35 26 21
153 141 134 138 226 277 284 244 181 185 271 220 182 162 130 104 61 8 37 146 156 158 158 156 153 148 144 146 144 133 124 121 121 121 117 113 127 124 92 64 44 27 34 17
84 108 124 146 196 246 253 249 160 112 282 235 166 168 160 125 109 268 160 123 119 117 123 129 126 125 133 140 137 130 132 130 133 134 130 126 131 136 118 86 48 30 41 24
99 94 150 180 223 260 258 209 117 162 249 214 165 169 164 172 197 191 133 123 118 114 117 122 123 128 138 139 132 131 134 145 155 139 127 117 115 129 126 90 72 68 51 43
181 175 191 168 208 255 238 141 177 216 220 157 160 161 151 139 121 115 117 123 121 115 117 125 125 123 126 132 128 127 145 155 135 124 115 100 83 91 102 97 74 65 66 50
195 191 186 190 212 237 222 199 201 162 161 168 160 150 140 135 134 123 123 125 127 126 127 125 126 123 119 126 133 141 160 143 130 118 113 96 72 74 97 110 102 61 52 53
233 156 155 228 258 248 232 193 152 161 167 155 148 144 143 142 141 134 133 131 132 129 134 128 129 132 136 140 148 160 153 139 133 134 127 108 97 72 61 74 109 139 239 276
213 166 172 235 251 217 254 201 164 128 116 115 119 132 144 137 139 145 147 147 149 141 140 140 144 149 154 151 154 155 148 141 137 137 129 114 109 103 60 25 334 249 242 216
200 181 180 216 208 184 211 195 159 144 146 142 132 126 133 142 145 143 149 153 152 149 143 143 147 152 156 152 158 163 157 150 146 142 140 136 127 105 85 20 347 341 265 276